EW2602 Weather Reports


time (UTC)temp
C
wind
direction
speed
KPH
gust
KPH
rain 1hr
cm
rain 24hr
cm
rain mn
cm
humidity
%
barometer
mb
20260906100034 22 24 0.0 0.0 0.00 0.00 0.00 10 1012.1
20260906094525 22 24 0.0 0.0 0.00 0.00 0.00 6 1012.2
20260906093024 22 24 0.0 0.0 0.00 0.00 0.00 6 1012.6
20260906091517 22 24 0.0 0.0 0.00 0.00 0.00 3 1012.7
20260906090012 22 343 0.0 0.0 0.00 0.00 0.00 3 1012.9
20260906084508 22 336 0.0 0.0 0.00 0.00 0.00 2 1013.0
20260906083003 22 336 0.0 0.0 0.00 0.00 0.00 1 1012.8
20260906081558 22 30 0.0 0.0 0.00 0.00 0.00 1 1012.8
20260906080056 22 27 0.0 0.0 0.00 0.00 0.00 1 1012.7
20260906074553 22 319 0.0 0.0 0.00 0.00 0.00 1 1012.9
20260906073045 22 34 0.0 0.0 0.00 0.00 0.00 1 1012.9
20260906071540 22 34 0.0 0.0 0.00 0.00 0.00 1 1012.8
20260906070036 22 34 0.0 0.0 0.00 0.00 0.00 1 1012.7
20260906064537 22 34 0.0 0.0 0.00 0.00 0.00 1 1012.6
20260906063029 22 34 0.0 0.0 0.00 0.00 0.00 1 1012.7
20260906061525 22 34 0.0 0.0 0.00 0.00 0.00 3 1012.7
20260906060021 22 34 0.0 0.0 0.00 0.00 0.00 5 1012.8
20260906054526 22 34 0.0 0.0 0.00 0.00 0.00 5 1012.8
20260906053014 22 34 0.0 0.0 0.00 0.00 0.00 9 1012.6
20260906051510 23 34 0.0 0.0 0.00 0.00 0.00 10 1012.7
20260906050009 23 34 0.0 0.0 0.00 0.00 0.00 9 1012.9
20260906044507 23 34 0.0 0.0 0.00 0.00 0.00 13 1013.1
20260906043105 23 34 0.0 0.0 0.00 0.00 0.00 13 1013.1
20260906041555 23 34 0.0 0.0 0.00 0.00 0.00 11 1013.2
20260906040051 23 34 0.0 0.0 0.00 0.00 0.00 15 1013.3
20260906034552 23 34 0.0 0.0 0.00 0.00 0.00 16 1013.5
20260906033045 23 34 0.0 0.0 0.00 0.00 0.00 16 1013.3
20260906031540 23 34 0.0 0.0 0.00 0.00 0.00 16 1013.2
20260906030034 24 34 0.0 0.0 0.00 0.00 0.00 20 1013.2
20260906024529 24 34 0.0 0.0 0.00 0.00 0.00 22 1013.1
20260906023027 25 34 0.0 0.0 0.00 0.00 0.00 24 1012.9
20260906021534 25 34 0.0 0.0 0.00 0.00 0.00 28 1013.0
20260906020019 25 34 0.0 0.0 0.00 0.00 0.00 32 1013.0
20260906014516 25 34 0.0 0.0 0.00 0.00 0.00 33 1012.8
20260906013013 25 34 0.0 0.0 0.00 0.00 0.00 33 1012.5
20260906011502 26 34 0.0 0.0 0.00 0.00 0.00 33 1012.1
20260906010058 26 34 0.0 0.0 0.00 0.00 0.00 38 1011.9
20260906004554 26 34 0.0 0.0 0.00 0.00 0.00 31 1011.8
20260906003050 26 55 0.0 0.0 0.00 0.00 0.00 33 1011.5
20260906001545 26 16 0.0 0.0 0.00 0.00 0.00 40 1011.1
20260906000041 27 16 0.0 0.0 0.00 0.00 0.00 46 1011.5
20260905234540 27 309 0.0 0.0 0.00 0.00 0.00 53 1011.7
20260905233033 27 309 0.0 0.0 0.00 0.00 0.00 54 1011.7
20260905231528 27 34 0.0 0.0 0.00 0.00 0.00 56 1011.2
20260905230023 27 34 0.0 0.0 0.00 0.00 0.00 58 1010.9
20260905224524 27 34 0.0 0.0 0.00 0.00 0.00 63 1011.1
20260905223015 27 34 0.0 0.0 0.00 0.00 0.00 64 1011.1
20260905221512 27 34 0.0 0.0 0.00 0.00 0.00 63 1011.3
20260905220007 28 34 0.0 0.0 0.00 0.00 0.00 63 1011.0
20260905214503 28 34 0.0 0.0 0.00 0.00 0.00 57 1011.0
20260905213102 29 34 0.0 0.0 0.00 0.00 0.00 60 1011.3
20260905211557 30 46 0.0 0.0 0.00 0.00 0.00 63 1011.3
20260905210055 31 58 0.0 0.0 0.00 0.00 0.00 61 1011.2
20260905204545 32 57 0.0 0.0 0.00 0.00 0.00 62 1011.2
20260905203041 33 57 0.0 0.0 0.00 0.00 0.00 60 1011.1
20260905201536 33 57 0.0 0.0 0.00 0.00 0.00 58 1011.4
20260905200035 33 241 0.0 0.0 0.00 0.00 0.00 59 1011.5
20260905194527 33 94 0.0 0.0 0.00 0.00 0.00 56 1011.7
20260905193026 34 271 0.0 0.0 0.00 0.00 0.00 53 1011.8
20260905191522 34 138 0.0 0.0 0.00 0.00 0.00 53 1012.0
20260905190018 34 40 0.0 0.0 0.00 0.00 0.00 54 1012.2
20260905184519 34 61 0.0 0.0 0.00 0.00 0.00 56 1012.3
20260905183006 33 348 0.0 0.0 0.00 0.00 0.00 58 1012.6
20260905181602 34 138 0.0 0.0 0.00 0.00 0.00 55 1012.7
20260905180056 33 44 0.0 0.0 0.00 0.00 0.00 58 1012.9
20260905174552 33 101 0.0 0.0 0.00 0.00 0.00 58 1013.3
20260905173048 33 115 0.0 0.0 0.00 0.00 0.00 59 1013.5
20260905171549 32 309 0.0 0.0 0.00 0.00 0.00 59 1013.7
20260905170039 32 300 0.0 0.0 0.00 0.00 0.00 60 1013.7
20260905164534 31 309 0.0 0.0 0.00 0.00 0.00 61 1014.0
20260905163030 31 151 0.0 0.0 0.00 0.00 0.00 58 1014.2
20260905161525 30 116 0.0 0.0 0.00 0.00 0.00 59 1014.5
20260905160022 30 97 0.0 0.0 0.00 0.00 0.00 56 1014.7
20260905154516 28 63 0.0 0.0 0.00 0.00 0.00 56 1014.9
20260905153015 28 30 0.0 0.0 0.00 0.00 0.00 51 1014.9
20260905151512 27 50 0.0 0.0 0.00 0.00 0.00 51 1015.0
20260905150003 26 265 0.0 0.0 0.00 0.00 0.00 42 1015.1
20260905144559 26 288 0.0 0.0 0.00 0.00 0.00 21 1015.1
20260905143054 25 288 0.0 0.0 0.00 0.00 0.00 17 1015.2
20260905141559 25 69 0.0 0.0 0.00 0.00 0.00 2 1015.3
20260905140045 25 244 0.0 0.0 0.00 0.00 0.00 3 1015.4
20260905134540 24 244 0.0 0.0 0.00 0.00 0.00 1 1015.4
20260905133036 23 244 0.0 0.0 0.00 0.00 0.00 1 1015.5
20260905131532 23 244 0.0 0.0 0.00 0.00 0.00 1 1015.6
20260905130031 23 244 0.0 0.0 0.00 0.00 0.00 1 1015.6
20260905124524 23 244 0.0 0.0 0.00 0.00 0.00 1 1015.6
20260905123018 22 244 0.0 0.0 0.00 0.00 0.00 1 1015.6
20260905121514 22 244 0.0 0.0 0.00 0.00 0.00 1 1015.4
20260905120009 22 244 0.0 0.0 0.00 0.00 0.00 1 1015.4
20260905114506 22 244 0.0 0.0 0.00 0.00 0.00 1 1015.1
20260905113002 22 244 0.0 0.0 0.00 0.00 0.00 1 1014.8
20260905111557 22 244 0.0 0.0 0.00 0.00 0.00 1 1014.7
20260905110052 22 244 0.0 0.0 0.00 0.00 0.00 1 1014.4
20260905104554 22 244 0.0 0.0 0.00 0.00 0.00 1 1014.5
20260905103049 22 244 0.0 0.0 0.00 0.00 0.00 1 1014.4
20260905101540 22 244 0.0 0.0 0.00 0.00 0.00 1 1014.3